Date,TemperatureHighF,TemperatureAvgF,TemperatureLowF,DewpointHighF,DewpointAvgF,DewpointLowF,HumidityHigh,HumidityAvg,HumidityLow,PressureMaxIn,PressureMinIn,WindSpeedMaxMPH,WindSpeedAvgMPH,GustSpeedMaxMPH,PrecipitationSumIn
2012-1-1,53.0,45.1,38.0,42.0,35.7,32.0,87,71,48,30.29,30.05,3,1,5,0.00
2012-1-2,50.0,46.7,43.0,47.0,39.1,33.0,94,75,55,30.22,29.87,10,2,25,0.22
2012-1-3,53.0,48.9,46.0,49.0,46.0,43.0,95,90,84,30.27,30.15,5,2,13,0.52
2012-1-4,52.0,49.3,47.0,50.0,46.2,42.0,96,89,69,30.15,29.98,6,2,19,0.59
2012-1-5,49.0,43.9,37.0,46.0,40.0,35.0,93,86,79,30.35,30.13,8,3,21,0.50
2012-1-6,41.0,38.9,38.0,38.0,36.6,36.0,94,92,86,30.35,30.26,3,0,8,0.07
2012-1-7,44.0,41.9,38.0,41.0,39.4,36.0,94,91,87,30.43,30.32,5,1,11,0.05
2012-1-8,49.0,45.6,43.0,43.0,41.0,38.0,89,84,75,30.36,30.20,6,1,14,0.01
2012-1-9,51.0,47.2,42.0,46.0,42.7,39.0,95,85,70,30.26,30.19,7,2,14,0.03
2012-1-10,45.0,39.1,37.0,39.0,35.8,30.0,96,88,70,30.51,30.26,4,1,8,0.13
2012-1-11,42.0,37.8,34.0,35.0,31.4,29.0,87,78,67,30.51,30.37,3,1,7,0.01
2012-1-12,42.0,37.2,33.0,37.0,33.2,29.0,92,85,78,30.39,30.28,2,1,5,0.00
2012-1-13,41.0,36.5,33.0,37.0,34.4,31.0,96,92,85,30.31,30.04,2,1,4,0.01
2012-1-14,43.0,37.6,33.0,39.0,34.5,30.0,94,88,68,30.05,29.86,7,2,16,0.01
2012-1-15,37.0,32.9,30.0,33.0,30.3,28.0,94,91,83,30.09,29.97,4,1,9,0.01
2012-1-16,36.0,33.3,31.0,33.0,31.1,28.0,94,92,88,30.11,29.92,7,3,18,0.04
2012-1-17,39.0,34.4,30.0,34.0,31.6,26.0,94,90,77,29.96,29.78,8,2,15,0.06
2012-1-18,34.0,30.1,27.0,29.0,27.9,24.0,95,91,67,29.96,29.63,5,2,9,0.01
2012-1-19,31.0,29.3,27.0,29.0,27.4,25.0,95,94,92,29.78,29.57,3,1,7,0.00
2012-1-20,34.0,32.6,31.0,33.0,31.4,29.0,96,95,94,29.75,29.65,1,0,2,0.00
2012-1-21,46.0,41.6,38.0,40.0,36.9,35.0,92,83,74,29.88,29.47,8,4,19,0.79
2012-1-22,44.0,40.3,37.0,42.0,37.5,34.0,95,89,73,29.88,29.41,6,2,17,0.30
2012-1-23,48.0,41.5,36.0,41.0,37.3,34.0,95,85,73,30.02,29.78,5,2,14,0.04
2012-1-24,52.0,43.3,39.0,49.0,40.8,35.0,97,91,78,29.99,29.64,11,2,30,0.30
2012-1-25,49.0,44.5,41.0,43.0,39.7,37.0,95,84,67,30.22,29.83,9,4,20,0.26
2012-1-26,47.0,42.5,37.0,46.0,38.8,33.0,96,87,75,30.59,29.88,11,3,18,0.37
2012-1-27,44.0,36.3,32.0,37.0,32.8,30.0,96,87,73,30.62,30.49,2,1,5,0.03
2012-1-28,47.0,40.9,34.0,36.0,33.8,31.0,93,77,56,30.49,30.09,6,2,13,0.01
2012-1-29,48.0,46.2,42.0,47.0,43.4,35.0,96,91,64,30.09,29.75,7,3,15,0.36
2012-1-30,49.0,45.2,43.0,46.0,42.3,40.0,96,89,79,30.04,29.81,8,2,15,0.16
2012-1-31,49.0,45.6,43.0,43.0,40.8,40.0,94,84,73,30.06,29.88,7,2,17,0.02
2012-2-1,47.0,43.7,41.0,44.0,41.5,38.0,96,92,84,30.45,29.85,5,1,9,0.32
2012-2-2,46.0,41.7,37.0,41.0,38.4,35.0,96,88,76,30.47,30.24,2,1,5,0.04
2012-2-3,58.0,45.6,37.0,43.0,34.7,27.0,93,69,41,30.25,30.07,4,1,7,0.00
2012-2-4,54.0,47.0,38.0,43.0,33.1,29.0,75,59,44,30.19,30.11,3,1,7,0.00
2012-2-5,50.0,43.8,37.0,41.0,34.7,29.0,85,71,44,30.23,30.13,2,1,5,0.00
2012-2-6,55.0,43.3,35.0,43.0,35.6,28.0,94,76,48,30.12,29.91,3,1,7,0.00
2012-2-7,58.0,49.3,42.0,41.0,31.5,28.0,74,51,36,30.01,29.85,4,1,10,0.00
2012-2-8,48.0,45.8,42.0,47.0,43.4,37.0,95,91,68,30.25,30.01,5,1,11,0.17
2012-2-9,50.0,47.4,45.0,49.0,46.0,44.0,97,95,92,30.27,30.03,2,0,4,0.12
2012-2-10,52.0,47.4,45.0,49.0,45.6,43.0,96,93,84,30.03,29.90,5,1,13,0.05
2012-2-11,49.0,45.7,44.0,44.0,42.2,40.0,92,87,79,30.14,30.03,5,2,12,0.02
2012-2-12,48.0,44.3,42.0,43.0,40.9,39.0,100,88,77,30.11,29.88,3,0,8,0.07
2012-2-13,46.0,43.2,42.0,44.0,41.5,40.0,96,94,88,30.05,29.91,3,0,7,0.25
2012-2-14,43.0,40.2,36.0,42.0,38.1,35.0,96,92,88,30.19,29.90,5,1,13,0.05
2012-2-15,45.0,38.6,33.0,40.0,36.4,32.0,97,92,80,30.38,30.19,5,1,8,0.01
2012-2-16,45.0,42.3,39.0,42.0,38.7,35.0,93,87,82,30.29,30.19,6,2,18,0.01
2012-2-17,48.0,44.3,42.0,46.0,41.9,39.0,93,91,85,30.25,29.81,6,1,19,0.29
2012-2-18,47.0,42.0,39.0,41.0,38.3,36.0,91,87,78,30.03,29.85,6,3,21,0.24
2012-2-19,45.0,40.9,36.0,37.0,34.9,32.0,90,79,68,30.07,29.89,6,2,13,0.01
2012-2-20,47.0,42.1,37.0,45.0,38.2,32.0,92,86,75,29.98,29.86,5,1,10,0.01
2012-2-21,52.0,49.3,47.0,47.0,45.6,45.0,92,87,82,30.05,29.94,8,3,23,0.03
2012-2-22,53.0,46.7,39.0,46.0,40.4,35.0,92,79,59,30.28,29.91,8,2,20,0.10
2012-2-23,46.0,41.9,39.0,39.0,36.3,35.0,87,81,72,30.38,30.27,3,1,7,0.01
2012-2-24,45.0,42.5,40.0,41.0,38.1,35.0,97,84,76,30.27,29.56,6,2,16,0.27
2012-2-25,46.0,40.6,35.0,39.0,34.9,31.0,90,80,66,30.17,29.56,4,1,15,0.20
2012-2-26,42.0,37.1,33.0,34.0,30.2,25.0,90,77,58,30.19,30.11,4,1,11,0.00
2012-2-27,45.0,36.2,32.0,30.0,26.7,24.0,83,69,49,30.19,29.96,5,1,9,0.00
2012-2-28,43.0,37.9,33.0,37.0,31.7,29.0,90,79,59,29.96,29.44,6,2,11,0.18
2012-2-29,41.0,38.0,36.0,37.0,34.4,32.0,90,87,77,29.76,29.49,7,4,19,0.42
2012-3-1,45.0,38.7,34.0,36.0,33.9,31.0,90,83,68,30.32,29.76,4,1,8,0.01
2012-3-2,44.0,41.3,37.0,41.0,37.7,34.0,90,87,81,30.38,30.30,6,2,14,0.01
2012-3-3,58.0,49.3,44.0,46.0,43.3,41.0,89,80,59,30.33,30.27,6,2,16,0.01
2012-3-4,53.0,47.9,46.0,44.0,42.1,40.0,89,81,71,30.33,29.96,8,3,20,0.00
2012-3-5,47.0,42.4,34.0,42.0,37.1,27.0,90,82,67,29.95,29.66,8,3,20,0.24
2012-3-6,42.0,36.3,32.0,34.0,29.1,25.0,92,76,54,30.34,29.87,5,1,9,0.07
2012-3-7,46.0,38.1,31.0,35.0,30.6,26.0,91,75,52,30.46,30.34,2,1,4,0.01
2012-3-8,58.0,45.2,35.0,42.0,36.3,31.0,88,72,51,30.38,30.13,4,1,14,0.00
2012-3-9,48.0,45.9,44.0,44.0,41.5,38.0,93,84,72,30.22,29.95,5,2,13,0.17
2012-3-10,47.0,44.6,43.0,43.0,41.2,38.0,93,88,74,29.95,29.63,6,2,13,0.46
2012-3-11,46.0,41.5,39.0,42.0,36.8,33.0,92,84,71,29.74,29.57,7,3,15,0.40
2012-3-12,44.0,41.5,37.0,40.0,35.8,32.0,92,81,66,29.65,29.32,9,3,19,0.56
2012-3-13,42.0,37.2,35.0,36.0,33.8,32.0,91,87,77,29.86,29.35,8,3,22,0.27
2012-3-14,43.0,39.8,35.0,41.0,36.5,32.0,93,88,77,29.86,29.67,9,2,21,0.28
2012-3-15,52.0,47.2,43.0,48.0,43.7,40.0,92,88,80,29.67,29.44,8,3,20,0.46
2012-3-16,50.0,43.5,40.0,41.0,38.7,37.0,91,83,63,29.69,29.38,8,2,18,0.38
2012-3-17,47.0,40.6,35.0,41.0,37.2,33.0,97,87,78,29.65,29.34,3,1,8,0.30
2012-3-18,41.0,38.1,34.0,37.0,34.9,32.0,92,88,83,29.83,29.61,3,0,7,0.23
2012-3-19,44.0,38.0,31.0,37.0,33.3,29.0,93,83,65,29.89,29.64,4,1,12,0.09
2012-3-20,47.0,41.5,37.0,40.0,35.1,-99.9,92,81,62,29.95,29.49,9,4,20,0.20
2012-3-21,47.0,41.3,35.0,36.0,33.1,30.0,90,74,51,30.00,29.79,5,1,15,0.01
2012-3-22,51.0,41.6,36.0,40.0,33.8,-99.9,91,76,47,30.03,29.79,3,-6,11,0.04
2012-3-23,52.0,42.6,35.0,40.0,35.1,32.0,92,76,53,30.05,29.94,2,1,5,0.01
2012-3-24,56.0,46.0,40.0,40.0,36.5,33.0,85,70,50,30.04,29.88,4,1,7,0.00
2012-3-25,52.0,46.6,40.0,43.0,38.5,34.0,82,73,63,29.88,29.69,5,1,7,0.00
2012-3-26,55.0,47.9,44.0,42.0,39.3,34.0,86,73,49,29.80,29.70,6,2,15,0.00
2012-3-27,57.0,47.2,43.0,49.0,42.9,38.0,93,85,70,29.72,29.48,4,0,8,0.18
2012-3-28,52.0,47.9,44.0,44.0,40.8,39.0,87,77,64,29.77,29.51,8,3,22,0.16
2012-3-29,47.0,44.8,43.0,44.0,42.2,40.0,93,90,76,29.65,29.41,4,1,14,0.95
2012-3-30,50.0,44.9,40.0,46.0,41.1,36.0,93,86,74,29.74,29.44,8,2,29,0.42
2012-3-31,46.0,40.9,38.0,42.0,38.5,35.0,93,91,85,29.70,29.41,3,0,7,0.26
2012-4-1,50.0,44.6,41.0,42.0,38.9,36.0,93,80,65,30.17,29.47,9,4,25,0.16
2012-4-2,60.0,50.6,43.0,41.0,38.4,35.0,83,64,44,30.22,29.86,3,1,10,0.01
2012-4-3,54.0,46.7,37.0,44.0,39.4,34.0,90,76,55,29.98,29.72,6,2,20,0.13
2012-4-4,49.0,41.5,37.0,41.0,36.7,34.0,93,84,58,30.09,29.95,3,0,6,0.09
2012-4-5,46.0,41.2,38.0,41.0,37.9,35.0,93,88,77,30.15,30.09,3,1,7,0.22
2012-4-6,53.0,43.0,37.0,40.0,36.4,34.0,92,78,55,30.29,30.15,4,1,7,0.02
2012-4-7,58.0,46.3,37.0,40.0,36.8,34.0,92,71,45,30.29,30.14,4,1,7,0.00
2012-4-8,63.0,53.1,44.0,44.0,37.7,32.0,69,57,39,30.16,29.97,3,1,6,0.00
2012-4-9,61.0,52.5,44.0,44.0,39.1,34.0,75,61,43,29.98,29.82,2,1,6,0.00
2012-4-10,64.0,54.8,48.0,48.0,44.7,39.0,84,70,51,29.82,29.70,3,1,7,0.00
2012-4-11,54.0,50.0,48.0,49.0,46.1,44.0,92,87,76,29.77,29.65,2,0,7,0.18
2012-4-12,56.0,49.1,44.0,48.0,43.1,40.0,93,81,59,29.81,29.69,6,1,14,0.01
2012-4-13,57.0,47.9,41.0,45.0,41.3,37.0,93,79,48,29.90,29.80,5,2,9,0.00
2012-4-14,58.0,48.6,41.0,47.0,41.4,-99.9,92,78,62,30.13,29.90,5,1,12,0.00
2012-4-15,57.0,50.1,46.0,45.0,42.4,40.0,85,75,61,30.19,29.98,4,0,8,0.00
2012-4-16,57.0,51.2,44.0,49.0,44.0,38.0,93,77,58,30.18,29.85,9,3,22,0.20
2012-4-17,49.0,44.1,39.0,43.0,39.9,36.0,94,85,73,30.21,29.97,4,0,10,0.04
2012-4-18,55.0,47.4,44.0,45.0,42.9,40.0,92,85,64,30.02,29.93,7,2,21,0.09
2012-4-19,55.0,49.4,40.0,50.0,45.0,38.0,93,85,63,30.06,29.96,4,1,11,0.30
2012-4-20,55.0,48.9,44.0,49.0,43.9,39.0,92,83,67,30.25,29.99,6,2,15,0.26
2012-4-21,59.0,50.1,41.0,48.0,43.5,38.0,91,79,63,30.19,29.98,3,1,6,0.01
2012-4-22,66.0,55.1,47.0,49.0,45.2,41.0,85,70,51,29.99,29.85,3,1,7,0.00
2012-4-23,64.0,57.4,49.0,53.0,50.1,46.0,88,77,67,29.91,29.80,3,1,7,0.00
2012-4-24,54.0,52.5,49.0,51.0,48.3,46.0,92,85,76,29.91,29.80,5,1,13,0.10
2012-4-25,60.0,53.2,49.0,55.0,50.1,46.0,92,90,80,29.80,29.60,4,0,9,0.26
2012-4-26,59.0,50.2,45.0,48.0,43.3,35.0,93,79,42,30.01,29.59,8,1,15,0.27
2012-4-27,58.0,48.9,43.0,43.0,41.0,38.0,87,75,49,30.27,30.01,7,2,16,0.02
2012-4-28,58.0,52.7,47.0,50.0,44.9,-99.9,88,77,64,30.27,30.17,2,1,9,0.00
2012-4-29,57.0,52.7,49.0,50.0,47.7,46.0,89,83,75,30.19,29.80,4,1,12,0.00
2012-4-30,55.0,50.0,45.0,48.0,43.9,40.0,88,79,72,29.87,29.63,9,4,22,0.09
2012-5-1,56.0,47.5,43.0,43.0,40.4,38.0,91,77,58,29.94,29.88,6,1,15,0.04
2012-5-2,56.0,47.9,41.0,44.0,40.2,37.0,91,75,54,29.98,29.75,4,1,8,0.05
2012-5-3,51.0,47.3,44.0,49.0,44.9,39.0,93,91,73,29.91,29.59,3,0,8,0.66
2012-5-4,52.0,45.8,43.0,45.0,42.2,40.0,92,87,73,30.33,29.91,4,1,10,0.66
2012-5-5,54.0,46.7,41.0,45.0,40.3,-99.9,92,81,63,30.49,30.33,2,1,5,0.24
2012-5-6,60.0,51.0,42.0,47.0,42.5,36.0,93,74,50,30.49,30.35,3,1,5,0.00
2012-5-7,67.0,54.5,45.0,52.0,46.5,38.0,90,75,53,30.37,30.08,3,1,4,0.00
2012-5-8,53.0,50.5,49.0,46.0,44.8,44.0,85,81,74,30.11,30.08,2,0,3,0.00
2012-5-12,68.0,59.5,50.0,50.0,43.9,-99.9,75,61,47,30.21,30.09,2,1,4,0.00
2012-5-13,73.0,60.5,51.0,51.0,44.3,38.0,70,56,35,30.17,30.03,3,1,6,0.00
2012-5-14,62.0,58.3,56.0,49.0,45.1,42.0,64,61,55,30.05,30.03,3,1,5,0.00
2012-5-19,55.0,55.0,55.0,43.0,42.8,42.0,65,64,62,30.02,30.01,2,1,3,0.00
2012-5-20,57.0,54.8,53.0,54.0,48.5,42.0,91,80,62,30.01,29.95,3,0,8,0.09
2012-5-23,55.0,51.1,48.0,48.0,46.3,45.0,89,84,77,29.97,29.95,5,1,11,0.12
2012-5-26,76.0,63.5,53.0,56.0,51.7,48.0,86,67,39,29.93,29.81,4,1,14,0.00
2012-5-27,65.0,56.7,53.0,51.0,47.6,45.0,81,72,56,30.05,29.93,4,1,13,0.00
2012-5-28,64.0,55.3,49.0,50.0,46.6,41.0,89,74,48,30.11,30.03,6,1,12,0.00
2012-5-29,59.0,53.0,48.0,48.0,44.8,42.0,84,74,58,30.16,30.11,2,1,3,0.00
2012-5-30,63.0,55.4,50.0,51.0,47.1,43.0,89,74,55,30.24,30.13,2,0,4,0.00
2012-5-31,61.0,56.4,52.0,57.0,53.1,49.0,92,89,82,30.13,29.98,3,0,8,0.01
2012-6-1,69.0,60.0,52.0,61.0,55.8,49.0,94,86,68,29.98,29.88,6,2,17,0.11
2012-6-2,59.0,53.5,51.0,53.0,48.9,-99.9,94,87,61,29.96,29.85,2,0,5,0.03
2012-6-3,60.0,52.8,48.0,50.0,44.8,42.0,86,74,60,29.98,29.88,3,0,7,0.00
2012-6-4,54.0,50.9,48.0,50.0,45.6,40.0,89,82,70,29.89,29.73,2,0,5,0.00
2012-6-5,55.0,50.7,48.0,51.0,47.8,46.0,93,90,84,30.19,29.80,3,1,5,0.31
2012-6-6,59.0,51.7,43.0,48.0,44.6,41.0,92,78,55,30.18,29.98,4,0,10,0.01
2012-6-7,60.0,52.6,48.0,54.0,47.3,44.0,93,83,63,29.98,29.78,6,1,15,0.55
2012-6-8,59.0,51.3,46.0,50.0,46.0,43.0,91,82,63,30.03,29.93,3,1,8,0.04
2012-6-9,59.0,51.7,45.0,51.0,46.7,43.0,93,83,72,30.22,30.03,2,1,7,0.02
2012-6-10,63.0,55.0,50.0,51.0,46.9,44.0,84,75,58,30.27,30.20,2,0,6,0.01
2012-6-11,69.0,57.4,48.0,54.0,49.0,45.0,90,75,46,30.20,30.05,2,1,4,0.01
2012-6-12,65.0,58.5,55.0,57.0,52.8,49.0,90,81,73,30.05,29.96,4,1,10,0.00
2012-6-13,57.0,54.0,52.0,52.0,48.5,46.0,84,81,76,30.17,29.99,4,1,14,0.00
2012-6-14,60.0,53.4,50.0,51.0,47.1,45.0,85,79,67,30.15,30.09,2,0,4,0.00
2012-6-15,66.0,56.8,47.0,53.0,48.9,44.0,91,76,56,30.18,30.12,2,1,4,0.00
2012-6-16,71.0,62.6,57.0,63.0,55.6,-99.9,86,80,74,30.13,29.91,6,1,19,0.00
2012-6-17,67.0,60.2,54.0,58.0,53.2,47.0,86,78,65,29.92,29.85,5,2,15,0.00
2012-6-18,59.0,53.7,50.0,54.0,49.4,47.0,92,85,78,30.02,29.83,4,1,10,0.01
2012-6-19,59.0,52.7,50.0,52.0,48.8,47.0,92,87,76,30.13,30.02,2,0,6,0.04
2012-6-22,54.0,53.6,53.0,52.0,51.6,51.0,93,92,91,29.75,29.70,0,0,1,0.33
2012-6-23,59.0,54.3,49.0,54.0,51.0,46.0,94,89,74,29.95,29.70,6,1,15,0.34
2012-6-24,65.0,54.7,46.0,54.0,48.5,44.0,93,80,59,30.05,29.93,2,1,5,0.03
2012-6-25,63.0,55.9,49.0,54.0,49.9,46.0,90,80,71,30.03,29.93,3,1,4,0.00
2012-6-26,58.0,54.6,52.0,55.0,51.0,48.0,93,88,82,30.06,29.91,3,0,9,0.01
2012-6-27,68.0,57.1,48.0,53.0,49.2,45.0,94,77,47,30.07,29.90,2,1,4,0.01
2012-6-28,71.0,61.2,52.0,57.0,51.4,45.0,86,71,55,30.01,29.89,3,1,10,0.00
2012-6-29,70.0,62.3,58.0,61.0,57.1,54.0,91,84,72,30.06,29.99,3,0,8,0.00
2012-6-30,64.0,60.2,58.0,61.0,57.6,56.0,93,91,87,30.00,29.93,2,1,5,0.10
2012-7-14,75.0,70.4,63.0,65.0,62.2,58.0,83,76,69,29.94,29.88,2,0,6,0.00
2012-7-15,63.0,59.3,56.0,58.0,54.7,52.0,92,85,75,29.93,29.85,4,1,15,0.00
2012-7-16,72.0,61.8,54.0,61.0,56.5,52.0,94,83,66,29.92,29.77,2,0,4,0.00
2012-7-17,69.0,63.7,59.0,62.0,58.6,55.0,91,84,76,29.90,29.78,4,0,9,0.00
2012-7-18,67.0,61.6,59.0,60.0,56.2,54.0,86,83,76,30.04,29.89,3,0,8,0.00
2012-7-19,71.0,63.3,57.0,61.0,57.1,53.0,89,81,69,30.05,29.88,3,1,4,0.00
2012-7-20,69.0,62.4,57.0,60.0,57.5,55.0,94,84,68,30.17,29.92,6,1,17,0.66
2012-7-21,73.0,62.8,57.0,61.0,56.7,52.0,91,81,58,30.17,30.05,2,0,6,0.01
2012-7-22,70.0,58.4,54.0,56.0,52.6,51.0,90,81,55,30.13,30.05,3,1,8,0.00
2012-7-23,65.0,57.6,53.0,56.0,52.3,49.0,91,83,72,30.20,30.13,2,0,8,0.00
2012-7-24,67.0,58.7,52.0,56.0,53.2,50.0,93,82,67,30.16,29.99,3,1,4,0.00
2012-7-25,72.0,62.2,53.0,60.0,55.7,50.0,92,80,64,30.02,29.90,2,1,3,0.00
2012-7-26,75.0,62.8,56.0,63.0,57.6,54.0,93,83,66,29.97,29.88,2,0,6,0.00
2012-7-27,64.0,59.6,56.0,58.0,54.8,52.0,90,85,79,30.09,29.93,4,1,9,0.00
2012-7-28,69.0,60.6,57.0,60.0,55.7,53.0,90,84,70,30.15,30.09,2,0,3,0.00
2012-7-29,70.0,61.1,57.0,60.0,55.4,53.0,89,82,67,30.16,30.08,2,0,4,0.00
2012-7-30,67.0,59.8,55.0,59.0,54.5,52.0,89,83,72,30.15,30.10,3,0,6,0.00
2012-7-31,67.0,59.9,56.0,57.0,54.0,52.0,86,81,68,30.17,30.13,2,0,4,0.00
2012-8-1,67.0,59.7,52.0,58.0,53.9,49.0,92,81,70,30.21,30.12,3,1,4,0.00
2012-8-2,69.0,60.5,54.0,59.0,54.5,50.0,89,81,67,30.18,30.10,3,0,5,0.00
2012-8-3,73.0,62.0,54.0,61.0,55.9,52.0,93,81,65,30.12,29.96,2,1,4,0.00
2012-8-4,79.0,68.5,58.0,64.0,59.1,54.0,88,73,58,29.96,29.81,2,0,5,0.00
2012-8-5,86.0,70.4,61.0,65.0,60.7,57.0,88,73,49,29.95,29.83,2,0,5,0.00
2012-8-6,74.0,64.7,61.0,62.0,58.3,56.0,88,80,66,30.08,29.95,4,1,9,0.00
2012-8-7,68.0,62.4,59.0,62.0,58.0,55.0,92,86,78,30.08,30.02,2,0,6,0.00
2012-8-8,67.0,62.1,56.0,58.0,55.6,53.0,89,80,67,30.21,30.05,2,0,8,0.00
2012-8-9,69.0,61.7,55.0,58.0,55.4,52.0,93,80,63,30.20,30.09,2,0,4,0.00
2012-8-10,69.0,61.3,54.0,58.0,55.1,51.0,92,81,66,30.13,30.03,2,1,4,0.00
2012-8-11,74.0,62.7,56.0,59.0,54.8,-99.9,91,78,58,30.08,29.96,3,1,4,0.00
2012-8-12,78.0,66.2,56.0,62.0,57.1,52.0,90,74,55,29.98,29.90,2,1,4,0.00
2012-8-13,75.0,64.2,57.0,61.0,55.9,52.0,87,75,55,30.01,29.94,2,1,4,0.00
2012-8-14,73.0,63.5,56.0,62.0,57.6,52.0,92,82,64,29.99,29.87,2,1,4,0.00
2012-8-15,81.0,67.3,59.0,60.0,57.2,52.0,91,72,49,29.94,29.83,3,1,5,0.00
2012-8-16,84.0,71.2,62.0,62.0,57.0,51.0,81,62,44,29.93,29.85,1,0,3,0.00
2012-8-17,82.0,69.0,60.0,64.0,58.5,55.0,88,71,53,29.96,29.87,2,0,3,0.00
2012-8-18,68.0,62.6,59.0,62.0,58.0,56.0,91,85,76,29.96,29.86,3,0,10,0.00
2012-8-19,70.0,62.4,57.0,59.0,56.6,52.0,91,82,66,30.02,29.92,4,1,8,0.00
2012-8-20,71.0,61.8,56.0,58.0,54.6,52.0,88,78,63,30.04,29.93,2,0,4,0.00
2012-8-21,68.0,60.7,56.0,58.0,54.8,52.0,89,81,68,30.02,29.95,3,0,6,0.00
2012-8-22,67.0,60.0,55.0,57.0,53.6,51.0,89,80,65,30.11,30.03,2,0,3,0.00
2012-8-23,63.0,58.4,54.0,55.0,51.2,48.0,85,77,70,30.10,30.03,3,1,5,0.00
2012-8-24,67.0,58.6,50.0,53.0,49.1,46.0,87,72,53,30.20,30.00,2,1,6,0.00
2012-8-25,70.0,59.8,52.0,55.0,51.4,48.0,89,74,56,30.00,29.72,3,1,4,0.00
2012-8-26,72.0,61.4,54.0,57.0,52.6,49.0,89,74,56,29.93,29.73,5,1,11,0.00
2012-8-27,77.0,63.4,54.0,55.0,51.8,47.0,88,68,37,30.04,29.93,5,1,11,0.00
2012-8-28,72.0,60.4,55.0,55.0,51.9,49.0,85,75,45,30.05,29.99,4,0,7,0.00
2012-8-29,67.0,59.9,55.0,59.0,53.9,51.0,91,81,61,30.13,30.03,2,0,5,0.02
2012-8-30,68.0,59.1,53.0,56.0,53.3,48.0,92,82,64,30.05,29.88,2,0,3,0.02
2012-8-31,67.0,57.3,50.0,53.0,49.4,46.0,88,76,54,29.98,29.91,2,1,4,0.00
2012-9-1,69.0,56.3,50.0,54.0,50.1,47.0,91,80,58,30.13,29.98,4,1,8,0.00
2012-9-2,67.0,57.5,50.0,54.0,50.1,47.0,92,77,52,30.19,30.12,2,1,3,0.00
2012-9-3,66.0,58.7,54.0,56.0,52.9,50.0,91,81,69,30.18,30.10,3,1,5,0.00
2012-9-4,68.0,58.8,51.0,57.0,53.0,48.0,91,81,66,30.20,30.09,2,1,4,0.00
2012-9-5,71.0,60.5,52.0,58.0,53.7,49.0,91,79,62,30.10,29.92,2,1,4,0.00
2012-9-6,75.0,63.8,57.0,56.0,53.8,50.0,86,71,48,30.03,29.94,3,1,5,0.00
2012-9-7,81.0,65.4,56.0,58.0,53.3,49.0,81,66,44,30.12,30.00,2,0,3,0.00
2012-9-8,80.0,65.2,56.0,59.0,54.6,51.0,84,70,47,30.01,29.88,4,1,9,0.00
2012-9-9,65.0,60.3,57.0,56.0,52.9,50.0,83,77,68,29.99,29.93,7,2,19,0.00
2012-9-10,64.0,56.8,52.0,55.0,49.9,46.0,92,78,56,30.20,29.93,5,2,10,0.02
2012-9-11,64.0,55.2,48.0,51.0,45.7,41.0,86,71,46,30.31,30.20,3,1,4,0.01
2012-9-12,65.0,56.1,50.0,52.0,48.0,43.0,86,75,58,30.35,30.22,4,1,5,0.00
2012-9-13,72.0,59.9,51.0,54.0,48.8,44.0,78,67,48,30.23,30.03,2,0,4,0.00
2012-9-14,69.0,60.0,53.0,55.0,50.2,47.0,83,71,57,30.08,30.00,2,1,3,0.00
2012-9-15,67.0,58.6,52.0,55.0,51.7,48.0,89,78,63,30.16,30.04,2,0,4,0.00
2012-9-16,69.0,59.3,51.0,55.0,51.7,47.0,90,77,57,30.21,30.10,3,1,4,0.00
2012-9-17,73.0,62.0,53.0,56.0,52.1,49.0,92,71,48,30.11,29.98,3,1,4,0.00
2012-9-18,77.0,63.7,53.0,55.0,52.1,49.0,88,68,41,30.06,29.99,2,0,3,0.00
2012-9-19,67.0,57.0,53.0,57.0,52.5,50.0,94,85,68,30.15,30.04,2,0,4,0.00
2012-9-20,66.0,56.1,49.0,57.0,51.4,46.0,93,85,72,30.09,30.01,4,1,8,0.00
2012-9-21,59.0,56.5,55.0,56.0,53.4,51.0,92,89,86,30.13,30.09,2,0,7,0.00
2012-9-22,63.0,57.0,53.0,54.0,50.7,-99.9,93,82,65,30.15,30.10,2,0,3,0.00
2012-9-23,63.0,55.2,49.0,53.0,49.3,46.0,92,81,68,30.15,30.10,2,1,4,0.00
2012-9-24,65.0,56.5,49.0,55.0,51.0,46.0,92,82,61,30.13,30.07,2,0,4,0.00
2012-9-25,63.0,56.7,51.0,54.0,51.4,48.0,92,83,69,30.14,30.09,2,0,4,0.00
2012-9-26,60.0,53.1,49.0,53.0,49.4,47.0,93,87,76,30.12,30.03,3,0,4,0.00
2012-9-27,66.0,55.9,48.0,55.0,50.2,46.0,93,82,65,30.06,29.93,2,1,3,0.00
2012-9-28,67.0,59.1,54.0,57.0,53.2,50.0,91,81,66,30.00,29.92,1,0,4,0.00
2012-9-29,62.0,57.2,54.0,55.0,50.6,47.0,90,79,67,30.28,30.00,2,1,4,0.00
2012-9-30,63.0,54.5,47.0,51.0,47.5,45.0,93,78,58,30.39,30.28,2,1,4,0.00
2012-10-1,69.0,57.2,48.0,57.0,50.0,45.0,90,78,57,30.35,30.08,4,1,7,0.00
2012-10-2,60.0,54.1,49.0,50.0,43.8,36.0,91,70,42,30.26,30.12,3,1,7,0.00
2012-10-3,64.0,54.9,49.0,45.0,37.5,34.0,75,52,33,30.37,30.25,3,1,8,0.00
2012-10-4,62.0,53.9,49.0,47.0,42.1,38.0,79,65,44,30.28,30.22,4,1,7,0.00
2012-10-5,65.0,53.9,46.0,47.0,41.8,32.0,83,65,35,30.28,30.20,2,0,6,0.00
2012-10-6,66.0,55.2,47.0,48.0,41.0,36.0,78,60,35,30.23,30.09,2,0,5,0.00
2012-10-7,66.0,55.9,50.0,50.0,44.4,40.0,80,66,48,30.09,29.90,3,1,4,0.00
2012-10-8,69.0,55.6,47.0,50.0,46.8,43.0,90,74,46,30.02,29.91,2,0,3,0.00
2012-10-9,57.0,51.6,48.0,50.0,47.4,45.0,92,86,76,30.12,30.02,3,1,8,0.00
2012-10-10,53.0,50.2,47.0,49.0,47.0,45.0,93,89,84,30.03,29.97,1,0,3,0.00
2012-10-11,53.0,49.5,45.0,48.0,45.9,43.0,92,87,81,29.99,29.78,1,0,3,0.00
2012-10-12,56.0,52.3,46.0,51.0,48.8,44.0,97,88,83,29.95,29.81,6,2,16,0.06
2012-10-13,59.0,56.5,53.0,57.0,53.7,50.0,92,91,89,30.11,29.95,7,2,17,0.09
2012-10-14,63.0,59.1,58.0,58.0,56.4,55.0,94,91,83,30.09,29.84,6,1,13,0.50
2012-10-15,61.0,57.0,53.0,59.0,54.4,51.0,94,91,83,29.93,29.49,5,1,15,0.45
2012-10-16,62.0,53.8,47.0,56.0,47.3,43.0,87,79,54,30.26,29.51,7,1,17,0.12
2012-10-17,56.0,48.9,43.0,49.0,44.6,41.0,94,86,69,30.32,30.19,3,1,6,0.00
2012-10-18,62.0,51.9,45.0,50.0,46.9,43.0,97,84,64,30.20,29.79,6,1,11,0.61
2012-10-19,58.0,53.1,48.0,55.0,50.2,44.0,94,90,81,29.79,29.74,4,2,12,0.66
2012-10-20,52.0,46.7,44.0,45.0,41.6,39.0,90,83,65,29.86,29.77,4,2,13,0.05
2012-10-21,51.0,44.6,41.0,44.0,40.2,38.0,92,85,72,29.86,29.76,5,2,13,0.03
2012-10-22,45.0,42.4,40.0,43.0,40.1,38.0,97,91,85,29.76,29.55,2,0,7,0.25
2012-10-23,52.0,45.5,43.0,43.0,41.3,40.0,91,86,66,29.85,29.63,5,2,15,0.10
2012-10-24,52.0,45.6,43.0,45.0,42.5,41.0,94,89,73,30.15,29.83,2,0,8,0.27
2012-10-25,51.0,45.7,42.0,47.0,43.2,40.0,94,91,83,30.40,30.15,2,0,3,0.17
2012-10-26,51.0,46.9,45.0,49.0,44.7,43.0,94,92,88,30.32,29.99,8,1,19,0.04
2012-10-27,57.0,50.9,49.0,55.0,48.7,47.0,94,92,89,30.02,29.72,7,2,19,0.38
2012-10-28,58.0,54.8,50.0,56.0,51.6,48.0,93,90,83,29.92,29.74,5,1,14,0.21
2012-10-29,61.0,56.3,50.0,56.0,52.8,48.0,97,88,76,29.99,29.70,8,3,22,0.51
2012-10-30,58.0,55.7,54.0,56.0,53.7,52.0,95,94,90,29.95,29.73,2,0,6,0.60
2012-10-31,58.0,56.2,53.0,56.0,54.1,51.0,95,93,91,29.74,29.60,3,0,12,1.44
2012-11-1,57.0,53.7,52.0,53.0,51.2,50.0,95,92,86,29.99,29.70,2,0,8,0.37
2012-11-2,58.0,53.3,51.0,54.0,50.9,49.0,94,92,85,30.02,29.95,3,0,9,0.10
2012-11-3,58.0,54.8,52.0,55.0,52.3,50.0,94,92,88,30.16,29.95,5,1,15,0.13
2012-11-4,62.0,58.0,55.0,59.0,55.7,52.0,94,92,88,30.28,30.15,5,1,14,0.23
2012-11-5,55.0,51.5,46.0,52.0,47.9,44.0,94,88,75,30.39,30.15,4,1,7,0.25
2012-11-6,56.0,49.6,45.0,52.0,46.8,43.0,94,91,85,30.15,29.91,7,1,14,0.01
2012-11-7,53.0,47.0,42.0,46.0,42.0,39.0,92,83,63,30.11,29.93,4,1,12,0.00
2012-11-8,49.0,43.9,38.0,41.0,37.6,34.0,93,79,69,29.93,29.80,3,1,9,0.00
2012-11-9,47.0,40.6,36.0,38.0,33.0,28.0,87,75,61,29.94,29.82,3,1,7,0.00
2012-11-10,44.0,38.2,34.0,35.0,29.9,26.0,84,72,56,30.20,29.94,3,1,7,0.00
2012-11-11,45.0,41.1,36.0,42.0,37.3,33.0,93,86,76,30.22,30.06,2,0,4,0.52
2012-11-12,53.0,48.4,45.0,50.0,46.1,43.0,94,92,88,30.19,30.06,4,1,11,0.48
2012-11-13,51.0,49.8,49.0,49.0,47.4,46.0,94,92,88,30.19,30.11,4,1,12,0.14
2012-11-14,50.0,46.3,43.0,48.0,43.1,-99.9,95,91,82,30.30,30.15,3,0,5,0.08
2012-11-15,47.0,42.6,40.0,44.0,40.4,38.0,94,93,88,30.26,29.93,3,1,9,0.00
2012-11-16,47.0,43.4,40.0,45.0,41.2,38.0,94,92,85,29.93,29.68,2,0,9,0.20
2012-11-17,52.0,46.8,44.0,47.0,43.3,40.0,94,88,76,29.68,29.45,6,2,14,0.34
2012-11-18,48.0,45.9,44.0,45.0,42.9,40.0,93,89,84,29.73,29.51,5,2,15,0.29
2012-11-19,54.0,49.4,48.0,52.0,46.7,44.0,95,91,85,29.66,29.32,6,2,22,0.96
2012-11-20,50.0,47.6,45.0,47.0,44.7,41.0,93,89,81,29.67,29.51,6,1,23,1.13
2012-11-21,45.0,43.2,40.0,43.0,40.4,38.0,93,90,84,30.28,29.51,7,2,17,0.47
2012-11-22,45.0,42.4,39.0,42.0,39.1,37.0,95,88,78,30.35,30.19,4,1,6,0.22
2012-11-23,50.0,46.1,43.0,48.0,44.0,40.0,94,93,82,30.21,30.01,4,1,11,0.14
2012-11-24,49.0,45.3,40.0,45.0,42.9,38.0,94,92,83,30.26,30.12,2,0,5,0.18
2012-11-25,46.0,40.8,38.0,41.0,38.2,36.0,94,91,81,30.34,30.20,3,1,6,0.11
2012-11-26,46.0,40.2,37.0,40.0,36.6,34.0,92,87,77,30.21,30.03,3,1,7,0.09
2012-11-27,46.0,40.5,36.0,41.0,37.7,34.0,95,90,81,30.07,29.87,2,1,4,0.06
2012-11-28,47.0,42.2,38.0,44.0,40.0,36.0,94,92,87,29.88,29.59,2,1,6,0.05
2012-11-29,53.0,49.0,44.0,49.0,44.9,42.0,94,86,74,29.69,29.42,4,1,9,0.07
2012-11-30,54.0,49.7,47.0,49.0,46.7,43.0,94,90,82,29.44,29.34,4,2,15,0.10
2012-12-1,54.0,48.9,46.0,47.0,44.5,42.0,93,85,72,29.60,29.27,9,3,24,0.33
2012-12-2,48.0,46.2,44.0,45.0,43.5,41.0,93,90,84,29.76,29.17,7,2,19,0.36
2012-12-3,49.0,47.2,44.0,47.0,44.5,41.0,96,90,86,29.98,29.64,6,2,16,0.44
2012-12-4,52.0,48.5,45.0,49.0,44.8,41.0,94,88,79,29.80,29.51,6,2,18,0.60
2012-12-5,47.0,43.8,40.0,41.0,38.6,36.0,87,82,73,30.17,29.80,8,3,18,0.46
2012-12-6,46.0,42.1,40.0,42.0,37.6,-99.9,93,88,86,30.16,30.02,6,2,16,0.24
2012-12-7,46.0,42.7,38.0,43.0,39.3,34.0,92,88,83,30.12,29.92,7,2,14,0.11
2012-12-8,44.0,39.4,37.0,38.0,35.8,34.0,91,87,73,30.33,30.13,3,0,6,0.10
2012-12-9,44.0,41.5,39.0,42.0,39.1,37.0,94,91,87,30.36,30.24,2,0,8,0.14
2012-12-10,44.0,42.9,42.0,42.0,40.9,40.0,94,93,91,30.40,30.07,3,0,8,0.15
2012-12-11,46.0,43.8,42.0,42.0,40.9,39.0,93,90,85,30.07,29.53,7,2,15,0.12
2012-12-12,44.0,42.0,41.0,42.0,40.0,39.0,94,93,92,30.01,29.59,2,0,6,0.12
2012-12-13,44.0,41.8,40.0,40.0,38.6,37.0,94,89,79,30.03,29.79,4,1,11,0.09
2012-12-14,43.0,39.6,37.0,40.0,36.8,35.0,94,90,80,29.92,29.77,4,1,11,0.10
2012-12-15,40.0,38.4,36.0,37.0,35.1,32.0,93,88,78,29.90,29.52,8,2,18,0.09
2012-12-16,45.0,39.9,37.0,43.0,37.4,34.0,94,91,88,29.71,28.94,8,3,15,0.14
2012-12-17,46.0,41.2,36.0,44.0,36.2,31.0,92,83,66,29.86,28.90,9,4,25,0.34
2012-12-18,38.0,36.6,35.0,34.0,33.1,32.0,91,87,82,29.96,29.85,7,3,15,0.23
2012-12-19,43.0,39.2,36.0,40.0,36.5,32.0,94,90,81,29.93,29.55,7,2,17,0.28
2012-12-20,45.0,40.7,36.0,42.0,38.0,33.0,93,90,85,29.82,29.50,5,2,14,0.49
2012-12-21,47.0,39.0,34.0,41.0,36.5,32.0,95,91,80,29.82,29.66,4,1,9,0.43
2012-12-22,47.0,42.4,39.0,42.0,38.7,37.0,94,87,75,29.72,29.49,7,2,20,0.42
2012-12-23,44.0,41.5,38.0,41.0,38.2,36.0,94,88,80,29.80,29.61,4,1,14,0.33
2012-12-24,42.0,40.2,38.0,39.0,37.6,36.0,94,91,85,30.15,29.80,4,1,8,0.22
2012-12-25,42.0,39.5,37.0,38.0,37.0,35.0,93,90,80,30.04,29.65,4,1,7,0.13
2012-12-26,44.0,42.1,39.0,41.0,39.2,37.0,93,89,85,29.90,29.69,4,2,13,0.22
2012-12-27,43.0,41.5,40.0,41.0,39.5,38.0,94,92,88,30.15,29.90,3,0,7,0.17
2012-12-28,46.0,41.7,39.0,40.0,38.6,37.0,94,89,75,30.15,30.10,2,0,4,0.10
2012-12-29,42.0,40.8,40.0,39.0,38.2,37.0,93,90,85,30.22,30.14,2,0,4,0.08
2012-12-30,41.0,38.6,36.0,39.0,36.1,34.0,94,91,86,30.31,30.22,3,1,4,0.07
2012-12-31,39.0,36.9,35.0,37.0,34.4,33.0,94,91,87,30.44,30.23,5,1,7,0.04
2013-1-1,40.0,36.8,33.0,36.0,33.6,31.0,93,88,80,30.47,30.34,3,1,5,0.03